Weather History for Juneau, WI

Change the Weather History Date:

Wednesday, August 7, 2013

  Actual Average Record
Temperature  
Mean Temperature 68 °F -  
Max Temperature 75 °F 76 °F 91 °F (1988)
Min Temperature 61 °F 58 °F 43 °F (1990)
Cooling Degree Days 4    
Growing Degree Days 18 (Base 50)    
Moisture  
Dew Point 60 °F    
Average Humidity 71    
Maximum Humidity 95    
Minimum Humidity 52    
Precipitation  
Precipitation 0.00 in - - ()
Sea Level Pressure  
Sea Level Pressure 29.88 in    
Wind  
Wind Speed 6 mph (NW)    
Max Wind Speed 15 mph    
Max Gust Speed 25 mph    
Visibility 10 miles    
Events Thunderstorm    
Averages and records for this station are not official NWS values.
T = Trace of Precipitation, MM = Missing Value Source: NWS Daily Summary

Daily Weather History Graph

Daily Weather History Graph

Search for Another Location

Airport:

Trip Planner

Search our weather history database for the weather conditions in past years. The results will help you decide how hot, cold, wet, or windy it might be!

Date:

Astronomy

Aug. 07, 2013 Rise Set
Actual Time 5:51 AM CDT 8:09 PM CDT
Civil Twilight 5:19 AM CDT 8:40 PM CDT
Nautical Twilight 4:40 AM CDT 9:19 PM CDT
Astronomical Twilight 3:56 AM CDT 10:03 PM CDT
Moon 6:43 AM CDT (8/7) 8:11 PM CDT (8/7)
Length of Visible Light 15h 21m
Length of Day
14h 17m
New Moon, 1% of the Moon is Illuminated
Aug 7
New Moon
Aug 14
First Quarter
Aug 20
Full
Aug 28
Last Quarter
Sep 5
New

Hourly Weather History & Observations

Time (CDT) Temp. Dew Point Humidity Pressure Visibility Wind Dir Wind Speed Gust Speed Precip Events Conditions
12:15 AM 71.6 °F 68.0 °F 88% 29.80 in 7.0 mi South 11.5 mph - N/A   Clear
12:35 AM 71.2 °F 68.2 °F 90% 29.82 in 7.0 mi SSW 10.4 mph - N/A   Clear
12:55 AM 71.1 °F 68.5 °F 92% 29.82 in 7.0 mi SSW 6.9 mph - N/A   Clear
1:15 AM 70.9 °F 68.9 °F 93% 29.81 in 5.0 mi SSW 4.6 mph - N/A   Clear
1:35 AM 70.7 °F 69.3 °F 95% 29.80 in 5.0 mi South 6.9 mph - N/A Thunderstorm Scattered Clouds
1:55 AM 69.4 °F 62.1 °F 77% 29.82 in 5.0 mi NNW 15.0 mph 19.6 mph N/A   Haze
2:15 AM 68.4 °F 55.9 °F 64% 29.80 in 10.0 mi NNW 6.9 mph 25.3 mph N/A   Overcast
2:35 AM 66.4 °F 57.6 °F 73% 29.80 in 10.0 mi NNW 5.8 mph - N/A Thunderstorm Overcast
2:55 AM 66.2 °F 58.5 °F 76% 29.78 in 10.0 mi ENE 3.5 mph - N/A Thunderstorm Overcast
3:15 AM 66.0 °F 58.8 °F 78% 29.77 in 10.0 mi Calm Calm - N/A   Overcast
3:35 AM 65.8 °F 59.2 °F 79% 29.77 in 10.0 mi Calm Calm - N/A Thunderstorm Overcast
3:55 AM 66.2 °F 59.5 °F 79% 29.79 in 10.0 mi NNW 9.2 mph - N/A   Overcast
4:15 AM 66.4 °F 61.0 °F 83% 29.80 in 10.0 mi NNW 5.8 mph - N/A   Overcast
4:35 AM 66.0 °F 60.8 °F 83% 29.78 in 10.0 mi Calm Calm - N/A   Mostly Cloudy
4:55 AM 65.7 °F 61.5 °F 86% 29.78 in 10.0 mi ESE 3.5 mph - N/A   Mostly Cloudy
5:15 AM 64.9 °F 61.7 °F 89% 29.78 in 10.0 mi SE 4.6 mph - N/A   Scattered Clouds
5:35 AM 65.3 °F 62.1 °F 89% 29.79 in 10.0 mi SSE 3.5 mph - N/A   Overcast
5:55 AM 65.3 °F 62.1 °F 89% 29.79 in 10.0 mi Calm Calm - N/A   Mostly Cloudy
6:15 AM 64.6 °F 62.6 °F 93% 29.80 in 10.0 mi North 3.5 mph - N/A   Overcast
6:35 AM 65.3 °F 62.8 °F 92% 29.81 in 10.0 mi Calm Calm - N/A   Overcast
6:55 AM 65.3 °F 63.1 °F 93% 29.82 in 10.0 mi Calm Calm - N/A   Mostly Cloudy
7:15 AM 66.4 °F 63.7 °F 91% 29.82 in 10.0 mi Calm Calm - N/A   Mostly Cloudy
7:35 AM 68.0 °F 61.7 °F 80% 29.82 in 10.0 mi WNW 4.6 mph - N/A   Scattered Clouds
7:55 AM 68.9 °F 58.6 °F 70% 29.82 in 10.0 mi NW 5.8 mph - N/A   Clear
8:15 AM 68.4 °F 59.4 °F 73% 29.82 in 10.0 mi NW 4.6 mph - N/A   Clear
8:35 AM 68.5 °F 59.2 °F 72% 29.83 in 10.0 mi West 4.6 mph - N/A   Clear
8:55 AM 69.8 °F 59.0 °F 68% 29.84 in 10.0 mi West 3.5 mph - N/A   Clear
9:15 AM 70.5 °F 59.0 °F 67% 29.84 in 10.0 mi NW 4.6 mph - N/A   Clear
9:35 AM 71.4 °F 59.9 °F 67% 29.85 in 10.0 mi NW 4.6 mph - N/A   Clear
9:55 AM 71.6 °F 58.8 °F 64% 29.85 in 10.0 mi West 3.5 mph - N/A   Clear
10:15 AM 72.7 °F 59.4 °F 63% 29.85 in 10.0 mi West 4.6 mph - N/A   Clear
10:35 AM 73.6 °F 58.6 °F 59% 29.85 in 10.0 mi NW 4.6 mph - N/A   Clear
10:55 AM 73.8 °F 57.4 °F 56% 29.86 in 10.0 mi NW 4.6 mph - N/A   Clear
11:15 AM 74.3 °F 56.5 °F 54% 29.87 in 10.0 mi NW 5.8 mph - N/A   Clear
11:35 AM 74.8 °F 57.4 °F 54% 29.87 in 10.0 mi West 3.5 mph - N/A   Clear
11:55 AM 75.2 °F 56.7 °F 52% 29.88 in 10.0 mi West 8.1 mph 17.3 mph N/A   Scattered Clouds
12:15 PM 75.2 °F 56.5 °F 52% 29.88 in 10.0 mi NW 8.1 mph - N/A   Scattered Clouds
12:35 PM 75.9 °F 57.6 °F 53% 29.89 in 10.0 mi NW 6.9 mph - N/A   Scattered Clouds
12:55 PM 75.2 °F 58.1 °F 55% 29.89 in 10.0 mi WNW 6.9 mph - N/A   Scattered Clouds
1:15 PM 75.0 °F 59.7 °F 59% 29.90 in 10.0 mi NNW 10.4 mph - N/A   Scattered Clouds
1:35 PM 74.1 °F 60.6 °F 63% 29.90 in 10.0 mi NW 10.4 mph 18.4 mph N/A   Scattered Clouds
1:55 PM 73.2 °F 60.3 °F 64% 29.90 in 10.0 mi NNW 12.7 mph 20.7 mph N/A   Scattered Clouds
2:15 PM 71.8 °F 59.0 °F 64% 29.91 in 10.0 mi NW 12.7 mph - N/A   Scattered Clouds
2:35 PM 71.4 °F 59.0 °F 65% 29.91 in 10.0 mi NW 11.5 mph - N/A   Scattered Clouds
2:55 PM 71.2 °F 57.9 °F 63% 29.92 in 10.0 mi NW 10.4 mph - N/A   Mostly Cloudy
3:15 PM 71.1 °F 57.0 °F 61% 29.91 in 10.0 mi North 5.8 mph - N/A   Mostly Cloudy
3:35 PM 73.6 °F 57.2 °F 56% 29.91 in 10.0 mi North 6.9 mph - N/A   Scattered Clouds
3:55 PM 73.8 °F 57.4 °F 56% 29.91 in 10.0 mi NNW 6.9 mph - N/A   Scattered Clouds
4:15 PM 73.6 °F 58.1 °F 58% 29.91 in 10.0 mi NW 4.6 mph - N/A   Scattered Clouds
4:35 PM 74.1 °F 57.0 °F 55% 29.91 in 10.0 mi NW 6.9 mph - N/A   Clear
4:55 PM 73.0 °F 57.2 °F 57% 29.91 in 10.0 mi NNW 4.6 mph - N/A   Scattered Clouds
5:15 PM 73.0 °F 57.6 °F 58% 29.91 in 10.0 mi Calm Calm - N/A   Scattered Clouds
5:35 PM 73.4 °F 57.9 °F 58% 29.91 in 10.0 mi Calm Calm - N/A   Mostly Cloudy
5:55 PM 75.2 °F 58.6 °F 56% 29.91 in 10.0 mi Calm Calm - N/A   Mostly Cloudy
6:15 PM 74.1 °F 57.7 °F 56% 29.92 in 10.0 mi West 3.5 mph - N/A   Scattered Clouds
6:35 PM 74.5 °F 57.6 °F 55% 29.92 in 10.0 mi NNW 5.8 mph - N/A   Mostly Cloudy
6:55 PM 73.4 °F 58.1 °F 59% 29.93 in 10.0 mi West 3.5 mph - N/A   Mostly Cloudy
7:15 PM 73.4 °F 56.7 °F 56% 29.93 in 10.0 mi NNW 3.5 mph - N/A   Scattered Clouds
7:35 PM 72.0 °F 57.6 °F 60% 29.93 in 10.0 mi North 3.5 mph - N/A   Scattered Clouds
7:55 PM 70.5 °F 58.5 °F 66% 29.95 in 10.0 mi Calm Calm - N/A   Clear
8:15 PM 68.9 °F 58.6 °F 70% 29.95 in 10.0 mi Calm Calm - N/A   Clear
8:35 PM 68.2 °F 59.2 °F 73% 29.96 in 10.0 mi Calm Calm - N/A   Clear
8:55 PM 67.6 °F 58.6 °F 73% 29.97 in 10.0 mi Calm Calm - N/A   Clear
9:15 PM 66.2 °F 59.0 °F 78% 29.97 in 10.0 mi Calm Calm - N/A   Clear
9:35 PM 65.5 °F 59.0 °F 80% 29.98 in 10.0 mi Calm Calm - N/A   Clear
9:55 PM 65.8 °F 57.9 °F 76% 29.98 in 10.0 mi Calm Calm - N/A   Clear
10:15 PM 65.3 °F 57.6 °F 76% 29.99 in 10.0 mi NNE 3.5 mph - N/A   Clear
10:35 PM 64.4 °F 57.6 °F 78% 29.99 in 10.0 mi North 3.5 mph - N/A   Clear
10:55 PM 63.9 °F 58.5 °F 83% 29.99 in 10.0 mi North 3.5 mph - N/A   Clear
11:15 PM 63.5 °F 58.5 °F 84% 30.00 in 10.0 mi Calm Calm - N/A   Clear
11:35 PM 62.6 °F 58.6 °F 87% 30.00 in 10.0 mi Calm Calm - N/A   Clear
11:55 PM 61.7 °F 58.5 °F 89% 30.00 in 10.0 mi North 4.6 mph - N/A   Clear